Powrót do katalogu

STARLINK-32167

AktywnyŁącznośćVLEO
NORAD 60268·PAYLOAD·🇺🇸 United States

Wystrzelony Jul 27, 2024 z Cape Canaveral Space Force Station

Loading…

Następne Przeloty (najbliższe 24 godziny)

TLE

ŚwieżeSource: CelesTrak SupGP

Epoka: Sep 14, 2026, 15:16 UTC

1 60268C 24131P   26257.63659722 -.00034823  00000+0 -10290-2 0  2577
2 60268  53.1575 253.0763 0001363  73.3847 214.0850 15.34402249    16

Śledź STARLINK-32167 w czasie rzeczywistym z AllMySat

Download on the App Store